星链-30527 (STARLINK-30527 )

导读

STARLINK-30527是美国太空探索技术公司星链星座的一员,于2023年10月5日发射入轨。它属于星链低轨互联网卫星项目,承担着为全球提供高速低延迟互联网服务的任务,星链系统通过大量低轨卫星组网,可支持远程通信、导航增强等多元应用,服务覆盖偏远地区与海上空中等场景,也被美国军方用于军事通信支持。

基本信息
目录编号:
58007
目录名称:
STARLINK-30527
国际标识:
2023-153S
轨道中心:
EARTH
卫星名称:
星链-30527
卫星全名:
星链-30527 (STARLINK-30527 )
卫星状态:
在轨 (已飞行989 天)
发射日期:
2023-10-05 UTC
国别 :
美国 (US)
星等 :
--
轨道信息
数据来源 国际轨道数据 AOE轨道数据
星历时间 2026-06-19T20:32:19+0800
22小时前
查看轨道信息
2026-06-14T01:00:00+0800
6天前
查看轨道信息
半长轴 6861.189km 6861.208km
偏心率 0.0001233 0.0001491
轨道倾角 43.004° 43.006°
近地点辐角 261.841° 255.323°
升交点赤经 343.284° 16.119°
平近点角 98.230° 133.833°
近地点 482.206km 482.047km
远地点 483.898km 484.095km
周期 94.267分钟 94.267分钟
每日圈数 15.275792 15.275729
详细信息
固有亮度:
5
最大亮度:
0.3
卫星平台:
Starlink v2.0 mini
覆盖范围:
全球
运营商:
太空探索技术公司
运营商所在国:
美国
制造商(研发单位):
太空探索技术公司
制造商所在国:
美国
使用方式:
暂无
卫星简介
星链(Starlink)计划是由太空探索技术公司(SpaceX)提出的一个巨型低轨卫星互联网星座项目,计划在2019年至2024年间在太空搭建由约1.2万颗卫星组成的“星链”网络,其中1584颗将部署在地球上空550千米处的近地轨道,并从2020年开始工作。该卫星仍在工作。
2D轨道图
3D轨道图
轨道高度分析图
轨道倾角分析图
轨道综合分析图
查看轨道综合分析图